Regional Weather Roundup
Issued by NWS

Home | Current Version | Previous Version | Graphics & Text | Print | Product List | Glossary On
Versions: 1 2 3 4 5 6 7 8 9 10 11 12 13 14 15 16 17 18 19 20 21 22 23 24 25 26 27 28 29 30 31 32 33 34 35 36 37 38 39 40 41 42 43 44 45 46 47 48 49 50
000
ASUS43 KBIS 022002
RWRND

NORTH DAKOTA REGIONAL WEATHER ROUNDUP
NATIONAL WEATHER SERVICE BISMARCK ND
300 PM CDT THU JUL 02 2015

NOTE: "FAIR" INDICATES FEW OR NO CLOUDS BELOW 12,000 FEET WITH NO
SIGNIFICANT WEATHER AND/OR OBSTRUCTIONS TO VISIBILITY.


NDZ001>003-009>011-017-022100-
NORTHWEST NORTH DAKOTA

CITY           SKY/WX    TMP DP  RH WIND       PRES   REMARKS
WILLISTON      LGT RAIN  79  61  53 N8        30.03S
MINOT          MOSUNNY   78  61  55 NW8       29.97S HAZE
MINOT AFB      MOSUNNY   82  68  63 W10       29.96S HAZE
$$

NDZ018>021-031>035-040>046-022100-
SOUTHWEST NORTH DAKOTA

CITY           SKY/WX    TMP DP  RH WIND       PRES   REMARKS
BISMARCK       PTSUNNY   80  63  55 NW10      29.97F HAZE
DICKINSON      MOSUNNY   78  61  55 NW10      30.03S HAZE
GARRISON         N/A     76  64  66 VRB5      29.99S
HETTINGER ARPT MOSUNNY   76  59  55 NW13      30.06S
$$

NDZ004>008-012>016-024-026-027-054-022100-
NORTHEAST NORTH DAKOTA

CITY           SKY/WX    TMP DP  RH WIND       PRES   REMARKS
GRAND FORKS    MOSUNNY   79  64  60 S14       29.91F
GRND FRKS AFB  MOSUNNY   80  65  60 SW12      29.92F
DEVILS LAKE    MOSUNNY   79  63  57 NW10      29.92F
$$

NDZ022-023-025-028>030-036>039-047>053-022100-
SOUTHEAST NORTH DAKOTA

CITY           SKY/WX    TMP DP  RH WIND       PRES   REMARKS
FARGO          SUNNY     78  55  44 S13       29.96F
JAMESTOWN      MOSUNNY   77  65  66 S9        29.95S
$$




USA.gov is the U.S. government's official web portal to all federal, state and local government web resources and services.